sat.trackr.live / text

‹ back to catalog

YAOGAN-3

NORAD 32289 · 2007-055A

PAYLOAD ACTIVE UNKNOWN

§ Identity

Operator
Country
PRC
Launch date
2007-11-11
Launch site
TAISC
Launch vehicle
Mass (kg)
RCS (m²)
5.13

Purposes: earth_obs

External: N2YO · Heavens-Above · Gunter

§ Orbital elements

Epoch: 2026-05-25T04:06:56.038752Z

Period
96.60 min
Inclination
97.8170°
Eccentricity
0.0001889
Mean motion
14.90677822 rev/d
Perigee alt
594.5 km
Apogee alt
597.1 km
Semi-major
6,974.0 km
B*
2.2279e-4
RAAN
175.2773°
Arg perigee
97.2503°
Mean anomaly
262.8930°
Rev number
244

§ Raw data

YAOGAN-31 32289U 07055A   26145.17148193  .00002129  00000+0  22279-3 0  99912 32289  97.8170 175.2773 0001889  97.2503 262.8930 14.90677822  2448

JSON: /api/v1/satellites/32289 · /tle

For live sub-satellite position, see the globe view (requires WebGL).

§ Visibility from observer

Set your observer location to see the next 7 days of passes ≥ 10°. The values pass through the URL so the page stays shareable.

No JS? Fill the form by hand. The geolocation button needs JavaScript.

§ Radio — SatNOGS DB

ModeDescriptionDownlinkUplink
FM S-band telemetry 2.296 GHz
FM S-band telemetry 2.213 GHz

2 transmitters · refreshed weekly from db.satnogs.org